TIME,DELAY(SENSOR),PRES,OXYGEN,RAWTEMP,T(OPTODE),TCPHASE,FLUOR,BETA(BETA700),BETA(BETA412),BETA(BETA440),CDOM,C(CSC),ED(ED412.40),ED(ED444.00),ED(ED489.70),ED(ED554.30),LU(LU411.80),LU(LU443.40),LU(LU489.60),LU(LU554.10),COMP,TILTX,TILTY,CHECK
1345520137,5807,883.0399780273438000,47.0210304260253900,663.1345214843750000,4.5247268676757810,54.0051116943359400,52,101,87,78,80,15337,2147759424,2147419620,2148006774,2147872576,2147644534,2147063881,2148253522,2147198994,668,5,13,17483
1345523733,5809,959.1699829101562000,49.2276687622070300,669.6444702148438000,4.3099379539489750,53.7755393981933600,53,101,88,81,81,15335,2147757449,2147420233,2148010450,2147874377,2147641846,2147063542,2148259648,2147198729,3518,4,13,39883
1345527333,5810,969.1799926757812000,49.7600402832031250,670.2623291015625000,4.2895321846008300,53.7048606872558600,53,99,93,79,82,15339,2147758902,2147422354,2148008621,2147876937,2147643254,2147062793,2148257252,2147197641,126,5,13,51109
1345530933,5811,1005.2000122070312000,50.1392097473144500,674.4417114257812000,4.1513600349426270,53.7044601440429700,52,97,89,79,81,15337,2147761654,2147419904,2148009088,2147874752,2147644178,2147062902,2148258395,2147196297,298,5,13,63282
1345534533,5808,999.5399780273438000,50.3626098632812500,676.7857055664062000,4.0737781524658200,53.7080383300781250,53,99,85,79,81,15337,2147760292,2147417243,2148012150,2147875565,2147642066,2147055890,2148261897,2147198345,97,5,13,32947
1345538133,5812,994.0300292968750000,51.6779708862304700,677.8032226562500000,4.0400810241699220,53.5387916564941400,53,99,86,77,81,15337,2147758866,2147419584,2148010221,2147872201,2147645842,2147058998,2148259885,2147195465,293,5,13,57907
1345541733,5807,1010.9600219726562000,51.6207389831543000,677.1602172851562000,4.0613780021667480,53.5409507751464840,52,99,85,79,81,15338,2147758116,2147421915,2148011126,2147874377,2147645138,2147062619,2148265289,2147197933,41,5,13,20042
1345545333,5809,1003.9299926757812000,51.5290298461914060,677.2568969726562000,4.0581760406494140,53.5545310974121100,52,99,88,77,81,15331,2147762669,2147422848,2148009325,2147875291,2147642148,2147054701,2148259666,2147200960,3472,4,13,53415
1345548933,5808,1003.9500122070312000,50.8316383361816400,677.8930053710938000,4.0371069908142090,53.6546287536621100,52,97,89,79,82,15335,2147760374,2147419236,2148009618,2147875099,2147644461,2147057618,2148264036,2147196315,3277,4,13,60860
1345552533,5808,1013.1699829101562000,52.1546401977539060,677.6755981445312000,4.0443081855773930,53.4724311828613300,52,98,85,79,81,15337,2147760036,2147420790,2148007149,2147876809,2147643117,2147060242,2148258267,2147199131,166,5,13,50143
1345556133,5809,1019.0000000000000000,51.4392814636230500,677.2128295898438000,4.0596327781677250,53.5642204284668000,52,100,91,79,82,15336,2147759725,2147421467,2148007853,2147873499,2147646025,2147059830,2148260690,2147195062,139,5,13,28464
1345559733,5810,1019.5700073242188000,51.4403495788574200,677.1849975585938000,4.0605559349060060,53.5646591186523440,53,99,91,79,82,15332,2147760777,2147420745,2148008777,2147876022,2147644416,2147056987,2148262793,2147194642,29,5,13,49401
1345563333,5809,1012.7000122070312000,51.0783004760742200,676.9865722656250000,4.0671248435974120,53.6070098876953100,51,98,89,81,82,15332,2147758153,2147415213,2148011830,2147873627,2147643958,2147054400,2148262390,2147198363,225,5,13,39222
1345566933,5810,1015.6199951171875000,50.5777015686035160,676.8833007812500000,4.0705451965332030,53.6749000549316400,52,98,90,80,81,15330,2147760457,2147418331,2148009088,2147876690,2147643282,2147057636,2148261266,2147200960,344,5,13,42118
1345570533,5808,1017.5800170898438000,49.9285697937011700,676.6439208984375000,4.0784721374511720,53.7608299255371100,52,98,85,79,82,15319,2147760073,2147419337,2148008091,2147878080,2147645156,2147060342,2148262299,2147198198,221,5,13,17946
1345574133,5810,1013.9799804687500000,49.8417205810546900,676.0369262695312000,4.0985679626464840,53.7668190002441400,53,98,86,80,82,15326,2147758957,2147419392,2148007305,2147874112,2147643684,2147061787,2148262116,2147199734,657,5,13,46189
1345577733,5809,1013.9299926757812000,50.9263114929199200,677.4937744140625000,4.0503268241882320,53.6408004760742200,53,104,86,78,81,15324,2147760841,2147418596,2148009316,2147877238,2147643867,2147057435,2148260160,2147193746,227,5,13,3783
1345581333,5805,1010.6400146484375000,51.1071510314941400,678.4252929687500000,4.0194740295410160,53.6243400573730500,53,101,89,81,82,15325,2147758235,2147420059,2148009234,2147877961,2147644964,2147061641,2148262125,2147195657,583,5,13,7106
1345584933,5813,1013.6300048828125000,50.4216194152832000,679.0341796875000000,3.9992980957031250,53.7267913818359400,52,99,86,79,81,15318,2147763666,2147418660,2148011282,2147873920,2147644626,2147056804,2148258925,2147199085,141,4,13,37807
1345588533,5808,1013.0200195312500000,50.4271011352539060,679.6019897460938000,3.9804821014404297,53.7366294860839840,53,100,88,79,81,15319,2147761984,2147421842,2148008941,2147873435,2147645513,2147059904,2148262838,2147198482,185,4,13,52048
1345592133,5810,1013.4899902343750000,50.1292610168457000,678.8043212890625000,4.0069160461425780,53.7662391662597660,52,97,89,79,82,15318,2147759241,2147418688,2148010614,2147875236,2147644077,2147059748,2148255405,2147196443,62,5,13,61408
1345595733,5808,1011.2199707031250000,50.2718887329101560,679.1713256835938000,3.9947569370269775,53.7473411560058600,53,100,87,79,82,15314,2147760429,2147420397,2148007908,2147877174,2147644818,2147055533,2148264960,2147198262,185,4,13,63548
1345599333,5811,1020.4500122070312000,50.6493911743164060,678.9711914062500000,4.0013871192932130,53.6968994140625000,52,100,88,78,83,15316,2147763163,2147420900,2148011520,2147875702,2147642020,2147056429,2148264338,2147198976,3323,4,13,58484
1345602933,5809,1018.8099975585938000,50.0472717285156250,678.9108886718750000,4.0033841133117680,53.7781410217285160,53,105,88,79,83,15316,2147760978,2147421165,2148009225,2147876717,2147643812,2147058166,2148257353,2147198966,166,5,13,23760
1345606533,5810,1016.9400024414062000,50.8578605651855500,678.0325927734375000,4.0324821472167970,53.6555290222168000,52,97,87,78,81,15302,2147759442,2147418011,2148009517,2147872109,2147645357,2147065728,2148260790,2147200768,566,4,13,51907
1345610133,5810,1019.1599731445312000,49.4561195373535160,678.7855224609375000,4.0075402259826660,53.8591918945312500,52,96,90,78,83,15301,2147758025,2147423771,2148011099,2147874002,2147643218,2147056749,2148260333,2147195483,89,4,13,39726
1345613733,5809,1027.1700439453125000,50.6344184875488300,677.4190063476562000,4.0528068542480470,53.6770591735839840,52,99,87,80,82,15301,2147757824,2147419757,2148008000,2147874633,2147643776,2147063259,2148260242,2147201307,429,4,13,1186
1345617333,5808,1023.5599975585938000,50.3048515319824200,676.7474975585938000,4.0750432014465330,53.7160491943359400,53,99,87,79,82,15301,2147758089,2147419894,2148009462,2147876626,2147641197,2147058166,2148261696,2147199579,18,5,13,34717
1345620933,5809,1023.2700195312500000,50.1015892028808600,676.9088745117188000,4.0696997642517090,53.7466011047363300,53,98,88,79,82,15299,2147757476,2147421339,2148009472,2147874038,2147642861,2147057682,2148258166,2147198390,182,5,13,16649
1345624533,5808,1015.1199951171875000,50.3948707580566400,678.6920776367188000,4.0106348991394040,53.7249794006347660,52,99,88,79,82,15298,2147759561,2147420507,2148009801,2147875547,2147645120,2147055314,2148257920,2147201709,3494,5,13,3010
1345628133,5809,1014.8499755859375000,50.1272201538085940,679.2999877929688000,3.9904899597167970,53.7680511474609400,52,98,87,79,82,15300,2147760100,2147417426,2148009106,2147874486,2147643410,2147057197,2148258678,2147198134,3162,5,13,33352
1345631733,5811,1012.7899780273438000,51.5888710021972660,680.0960083007812000,3.9641079902648926,53.5826988220214840,52,97,89,78,81,15301,2147758272,2147418066,2148011245,2147877668,2147644772,2147056914,2148265243,2147200329,3535,5,13,25349
1345635333,5808,1016.5000000000000000,51.7397689819335940,680.5541992187500000,3.9489169120788574,53.5675010681152340,52,98,86,79,81,15303,2147760850,2147418441,2148005366,2147873142,2147644416,2147062656,2148257590,2147200731,3547,4,13,28715
1345638933,5808,1014.0399780273438000,52.0359916687011700,679.9868164062500000,3.9677259922027590,53.5201301574707000,53,97,86,84,82,15299,2147759350,2147419766,2148010285,2147872548,2147645366,2147060672,2148263030,2147200704,565,4,13,44274
1345642533,5810,1017.0700073242188000,51.3654785156250000,679.5103759765625000,3.9835169315338135,53.6008110046386700,53,99,89,80,81,15302,2147760905,2147418285,2148008338,2147873490,2147644160,2147056960,2148261211,2147200429,843,5,13,29452
1345646133,5806,1020.5100097656250000,50.5395202636718750,678.7612304687500000,4.0083451271057130,53.7091484069824200,53,100,88,80,82,15301,2147762212,2147421202,2148005293,2147874669,2147643346,2147059867,2148259492,2147201481,3375,4,13,2336
1345649733,5807,1022.2899780273438000,50.1988296508789060,678.4166259765625000,4.0197620391845700,53.7467002868652340,52,97,89,79,82,15299,2147763328,2147419986,2148008850,2147873280,2147642998,2147060105,2148256466,2147201536,144,5,13,31071
1345653333,5806,1021.1599731445312000,50.9747810363769500,678.1702880859375000,4.0279221534729000,53.6434898376464840,53,101,86,78,82,15296,2147764397,2147423433,2148010898,2147872813,2147643154,2147055890,2148259748,2147196662,416,4,13,36380
1345656933,5807,1025.3299560546875000,50.4966392517089840,678.4376831054688000,4.0190620422363280,53.7059288024902340,52,103,90,78,81,15298,2147760713,2147420160,2148008274,2147874166,2147646171,2147057764,2148260736,2147197403,499,4,13,2183
1345660533,5809,1020.2199707031250000,50.6281089782714840,678.5999755859375000,4.0136871337890625,53.6957283020019500,53,100,88,79,82,15217,2147761188,2147421339,2148007305,2147875291,2147641764,2147062363,2148254848,2147197028,127,4,13,6378
1345664133,5810,1025.9100341796875000,51.3806495666503900,678.0507812500000000,4.0318789482116700,53.5827598571777340,52,100,87,79,81,15219,2147761563,2147420772,2148007469,2147871588,2147644013,2147059300,2148264365,2147198646,249,4,13,13148
1345665055,5808,1019.4400024414062000,50.9414482116699200,677.9602050781250000,4.0348801612854000,53.6409797668457000,52,98,89,78,81,15318,2147761106,2147424731,2148006098,2147873773,2147645641,2147059931,2148259830,2147201691,3513,4,13,33465
